Temperature
1 1 1 1 1 1 1 1 1 1 1 2 2 2 2 2 2 1 1 1 1 1 1 1 1 1 1 1 1 1 0 0 0 0 0 0 0 0 0 1 1 1 1
0 0 0 0 1 1 1 1 1 1 1 1 1 1 1 1 1 1 1 1 1 1 1 0 0 0 0 0 0 0 -0 -0 -0 -0 -0 -0 -0 -0 -0 -0 -0 -0 0
-0 -1 -0 -0 -0 0 0 0 0 0 0 0 0 0 0 0 0 0 0 0 0 0 0 0 -0 -0 -0 -0 -0 -0 -1 -1 -1 -1 -1 -1 -1 -1 -1 -1 -1 -1 -1
-1 -1 -1 -1 -1 -1 -0 -0 -0 -0 -0 -0 -0 -0 -0 -0 -0 -0 -0 -0 -0 -0 -0 -0 -1 -1 -0 -1 -1 -1 -1 -1 -1 -1 -2 -2 -2 -2 -2 -1 -1 -1 -1
-2 -2 -2 -2 -1 -1 -1 -1 -1 -1 -1 -1 -1 -1 -1 -1 -1 -1 -1 -1 -1 -1 -1 -1 -1 -1 -1 -1 -1 -1 -2 -2 -2 -2 -2 -2 -2 -2 -2 -2 -2 -2 -2
-2 -2 -2 -2 -2 -2 -2 -1 -1 -1 -1 -1 -1 -1 -1 -2 -2 -1 -1 -1 -1 -1 -2 -2 -2 -2 -2 -2 -2 -2 -2 -2 -2 -3 -3 -3 -2 -3 -3 -3 -3 -3 -3
-3 -3 -3 -3 -3 -3 -2 -2 -2 -2 -2 -2 -2 -2 -2 -2 -2 -2 -2 -2 -2 -2 -2 -2 -2 -2 -3 -2 -3 -3 -3 -3 -3 -3 -3 -3 -3 -3 -3 -3 -3 -3 -3
-3 -4 -4 -3 -3 -3 -3 -3 -2 -3 -3 -3 -3 -3 -3 -3 -3 -3 -3 -3 -3 -3 -3 -3 -3 -3 -3 -3 -3 -3 -4 -4 -4 -4 -4 -4 -4 -4 -4 -4 -4 -4 -4
-4 -4 -4 -4 -4 -4 -4 -3 -3 -3 -3 -3 -3 -3 -3 -3 -4 -3 -3 -3 -3 -4 -4 -4 -4 -4 -4 -4 -4 -4 -4 -4 -4 -4 -4 -4 -4 -4 -4 -5 -5 -5 -5
-5 -5 -5 -5 -5 -5 -4 -4 -4 -4 -4 -4 -4 -4 -4 -4 -4 -4 -4 -4 -4 -4 -4 -4 -4 -4 -4 -5 -5 -5 -5 -4 -5 -5 -5 -5 -5 -5 -5 -5 -5 -5 -5
-6 -5 -6 -6 -5 -5 -5 -5 -5 -5 -5 -5 -5 -5 -5 -5 -5 -5 -5 -5 -5 -5 -5 -5 -5 -5 -5 -5 -5 -5 -5 -5 -5 -5 -5 -5 -5 -5 -5 -6 -6 -6 -6
-6 -6 -6 -6 -6 -6 -6 -6 -6 -6 -6 -6 -6 -6 -6 -6 -6 -6 -5 -5 -5 -6 -6 -5 -6 -6 -5 -5 -6 -6 -6 -6 -6 -6 -6 -6 -6 -6 -6 -6 -6 -6 -6
-7 -7 -7 -7 -7 -7 -6 -7 -7 -7 -7 -7 -7 -7 -6 -6 -6 -6 -6 -6 -6 -6 -6 -6 -6 -6 -6 -6 -6 -6 -6 -6 -6 -6 -6 -6 -6 -6 -6 -6 -7 -7 -7
-8 -8 -8 -7 -7 -7 -7 -7 -7 -7 -7 -7 -7 -7 -7 -7 -7 -7 -7 -7 -7 -7 -7 -7 -7 -7 -7 -7 -7 -7 -7 -7 -7 -7 -7 -7 -7 -7 -7 -7 -7 -7 -8
-8 -8 -8 -8 -8 -8 -8 -8 -8 -8 -8 -8 -8 -8 -8 -7 -7 -7 -7 -7 -7 -7 -7 -8 -8 -8 -8 -8 -8 -8 -8 -8 -8 -8 -8 -7 -7 -8 -8 -8 -8 -8 -8
-9 -9 -9 -9 -9 -9 -9 -9 -8 -8 -8 -8 -8 -8 -8 -8 -8 -8 -8 -8 -8 -8 -8 -8 -8 -8 -9 -9 -9 -8 -8 -8 -8 -8 -8 -8 -8 -8 -8 -8 -9 -9 -9
-9 -10 -9 -9 -9 -9 -9 -9 -9 -9 -9 -9 -9 -9 -9 -9 -9 -9 -8 -8 -9 -9 -9 -9 -9 -9 -9 -9 -9 -9 -9 -9 -9 -9 -9 -9 -9 -9 -9 -9 -9 -10 -10
-10 -10 -10 -10 -10 -10 -10 -10 -10 -10 -10 -9 -9 -9 -9 -9 -9 -9 -9 -9 -9 -9 -9 -10 -10 -10 -10 -10 -10 -10 -10 -10 -9 -9 -9 -9 -9 -10 -10 -10 -10 -10 -10
-10 -11 -11 -11 -11 -11 -11 -11 -11 -10 -10 -10 -10 -10 -10 -10 -10 -10 -10 -10 -10 -10 -10 -10 -10 -10 -10 -10 -10 -10 -10 -10 -10 -10 -10 -10 -10 -10 -10 -10 -10 -11 -11
-11 -11 -11 -11 -11 -11 -11 -11 -11 -11 -11 -11 -11 -11 -11 -11 -11 -10 -10 -10 -10 -10 -10 -11 -11 -10 -11 -11 -11 -11 -11 -11 -11 -11 -11 -11 -11 -11 -11 -11 -11 -11 -11
-12 -12 -12 -12 -12 -12 -12 -12 -12 -12 -12 -12 -12 -12 -11 -11 -11 -11 -11 -11 -11 -11 -11 -11 -11 -11 -11 -11 -11 -11 -11 -11 -11 -11 -11 -11 -11 -11 -11 -11 -11 -12 -12
-12 -12 -12 -12 -12 -12 -12 -12 -12 -12 -12 -12 -12 -12 -12 -12 -11 -11 -11 -11 -11 -11 -11 -12 -12 -11 -11 -11 -12 -12 -12 -12 -12 -12 -12 -12 -12 -12 -12 -12 -12 -12 -12
-13 -13 -13 -13 -13 -13 -13 -13 -13 -13 -13 -13 -13 -13 -12 -12 -12 -12 -12 -12 -12 -12 -12 -12 -12 -12 -12 -12 -12 -12 -12 -12 -12 -12 -12 -12 -12 -12 -12 -12 -12 -13 -13
-13 -13 -13 -13 -13 -13 -13 -13 -13 -13 -13 -13 -13 -13 -13 -13 -12 -12 -12 -12 -12 -12 -12 -12 -12 -12 -12 -12 -12 -12 -12 -12 -12 -12 -12 -12 -13 -13 -13 -13 -13 -13 -13
-14 -13 -13 -13 -14 -14 -14 -14 -14 -13 -13 -13 -13 -13 -13 -13 -13 -13 -13 -13 -13 -13 -13 -13 -13 -13 -13 -13 -12 -12 -13 -13 -13 -13 -13 -13 -13 -13 -13 -13 -13 -13 -13
-14 -14 -14 -14 -14 -14 -14 -14 -14 -14 -14 -14 -14 -14 -14 -14 -13 -13 -13 -13 -13 -13 -13 -13 -13 -13 -13 -13 -13 -13 -13 -13 -13 -13 -13 -13 -13 -13 -13 -13 -13 -13 -14
Wind_Speed
4 3 3 4 4 4 4 4 4 4 5 5 6 6 6 6 6 6 6 6 6 5 4 5 5 4 4 3 3 3 3 2 3 3 1 2 2 2 3 4 5 5 5
4 3 3 3 4 4 4 4 4 5 5 5 5 5 6 6 6 7 7 7 7 7 6 5 5 4 4 4 3 4 3 3 3 3 2 2 2 3 4 4 4 5 5
3 3 3 3 4 4 4 4 5 5 5 5 5 6 6 6 6 6 7 7 7 7 7 7 6 6 5 4 4 4 3 3 2 3 3 2 2 2 2 3 4 4 5
3 3 3 3 3 3 4 4 5 5 5 5 5 6 6 6 6 6 6 6 6 6 6 6 6 7 7 6 5 5 4 3 3 3 3 2 2 2 2 2 2 2 3
2 3 3 2 2 3 3 3 3 4 5 5 5 5 5 5 6 7 7 6 6 6 5 5 5 6 7 6 5 5 5 4 3 3 3 3 3 2 3 2 3 2 3
2 2 2 2 2 2 3 3 3 3 4 4 5 5 5 5 7 9 7 6 6 6 6 5 5 5 7 8 8 7 7 6 5 4 4 4 5 4 2 3 2 2 3
1 2 2 2 2 2 2 3 3 3 3 4 4 5 5 5 7 8 8 5 5 5 5 5 4 5 6 5 6 6 6 8 7 6 6 6 5 5 4 4 4 3 4
1 1 1 2 2 2 2 2 3 3 3 4 4 5 4 5 7 7 8 5 4 5 5 5 5 5 6 6 5 5 4 5 6 6 5 6 5 5 5 5 4 3 3
1 1 1 2 2 2 2 2 2 3 3 3 4 4 4 5 7 7 6 4 4 4 4 5 5 5 7 7 6 5 4 4 6 7 7 7 7 7 6 3 3 3 3
2 2 2 2 2 2 2 2 2 2 2 2 2 3 4 4 6 7 6 4 4 3 3 4 5 6 7 8 5 5 6 5 3 3 4 5 5 7 7 5 4 4 3
1 1 1 1 1 2 2 1 2 2 2 2 2 2 3 4 5 7 6 4 4 4 3 3 3 6 7 8 6 5 6 5 4 3 3 3 3 3 4 5 5 4 4
1 1 1 1 0 1 2 1 1 2 2 2 2 2 2 3 4 5 6 5 4 4 4 3 4 5 6 7 5 5 6 4 3 3 3 3 3 3 3 4 5 5 5
1 1 1 1 1 1 2 2 1 2 2 2 2 2 2 1 2 4 5 5 5 3 2 4 4 5 4 3 4 5 4 3 3 3 4 3 3 3 2 2 2 2 3
1 1 1 1 1 1 1 1 1 1 2 2 2 2 1 1 1 1 2 2 3 3 2 3 4 3 2 2 2 2 2 3 3 4 3 3 2 2 2 2 2 1 2
1 1 1 1 1 1 1 1 0 1 2 2 2 2 2 2 3 3 2 2 2 3 3 2 2 2 2 1 1 1 1 2 3 2 2 2 2 2 2 2 2 2 3
1 1 1 1 1 1 1 2 3 2 2 2 2 2 2 3 3 4 4 3 3 4 3 3 3 3 3 2 2 2 1 2 2 2 2 3 3 3 3 2 2 3 3
1 2 1 1 1 1 1 1 1 3 3 3 3 2 2 2 3 3 2 2 3 4 2 2 3 3 2 2 2 2 2 2 1 2 2 2 2 3 3 3 3 3 3
2 2 2 1 1 1 1 0 0 0 1 2 3 3 2 2 2 2 2 1 1 1 1 2 2 2 2 2 2 2 2 1 1 2 2 2 3 3 3 4 4 4 4
2 2 1 1 1 1 1 0 1 1 1 1 1 2 4 3 2 1 1 1 1 1 1 1 2 2 2 2 2 2 2 2 2 2 2 3 3 3 3 4 4 5 4
2 3 3 1 1 1 1 1 1 1 1 1 1 2 2 2 1 0 0 1 1 1 1 1 1 2 2 2 2 2 2 2 2 2 2 3 3 3 4 4 4 4 4
2 3 4 2 2 1 1 1 1 1 1 1 1 2 3 1 1 1 1 1 1 1 1 1 1 2 2 2 2 2 3 2 3 3 3 3 3 3 3 3 4 4 4
2 2 2 2 2 1 1 1 1 1 2 2 2 3 4 2 1 1 1 0 0 0 1 1 1 1 2 2 3 3 3 3 3 3 3 3 3 3 3 3 3 3 3
2 2 2 2 2 2 2 1 1 2 2 2 2 2 2 1 1 1 1 1 1 1 1 2 2 2 3 3 3 4 4 4 5 5 4 4 4 4 4 4 4 4 4
2 1 2 2 2 2 2 2 2 2 2 2 2 2 2 1 1 2 2 1 1 2 2 2 3 3 4 4 5 6 7 7 7 7 7 6 5 4 4 4 5 5 5
2 2 2 2 2 2 2 2 2 2 2 2 2 2 2 2 2 2 2 2 2 2 3 3 4 4 5 6 6 7 7 8 8 8 7 7 5 5 5 5 5 5 5
2 2 2 2 2 2 2 2 2 2 2 3 3 2 2 2 2 2 2 2 2 3 3 4 5 6 6 7 8 8 9 9 9 9 7 6 5 5 5 5 5 5 5
Wind_Direction
193 192 194 192 185 185 182 182 180 177 178 181 182 184 180 182 183 180 182 178 180 185 188 188 194 189 187 191 193 199 206 196 230 264 282 223 203 216 235 236 247 249 259
196 192 193 189 183 182 182 184 182 184 186 185 184 186 188 184 184 184 187 185 186 189 192 190 196 192 189 192 193 201 205 197 206 238 262 249 236 215 230 231 245 249 251
189 190 189 189 189 189 187 188 187 186 187 190 186 190 192 188 185 189 190 190 191 194 193 194 197 189 193 197 197 202 202 201 193 209 243 256 256 223 243 248 247 249 253
193 192 191 196 199 197 191 193 194 188 189 196 197 197 194 194 193 192 190 193 194 195 196 195 196 194 195 193 198 199 193 187 179 192 222 242 254 236 240 242 268 261 262
197 198 199 199 200 194 192 194 195 193 196 195 196 198 197 198 199 191 191 195 193 191 191 196 202 203 202 199 199 193 185 188 188 200 218 235 240 231 237 233 252 275 279
199 205 205 198 202 202 201 198 191 194 195 193 195 197 201 210 209 202 197 195 193 191 194 196 203 204 208 210 213 206 197 194 197 206 223 225 233 232 239 237 249 268 273
216 203 204 197 210 213 210 198 191 190 195 198 198 198 205 215 217 211 203 195 191 194 192 195 206 209 204 200 210 213 217 218 214 208 215 225 227 223 225 233 230 243 259
255 211 201 200 214 215 210 202 196 190 197 202 200 202 207 218 221 220 205 190 184 190 195 196 198 201 203 197 194 201 216 229 231 223 217 223 222 218 221 224 222 251 287
310 274 234 214 211 204 203 208 190 185 200 208 202 197 202 213 219 219 204 183 186 193 198 201 195 197 207 205 196 197 213 237 244 239 239 239 237 234 230 203 198 225 264
303 295 283 240 211 199 199 204 193 183 196 214 215 199 200 210 219 214 200 182 184 189 195 203 208 206 209 207 200 199 214 227 225 233 238 242 235 230 235 220 201 214 246
324 320 304 256 219 193 181 191 180 182 180 197 211 211 206 214 218 210 199 191 187 188 197 204 215 217 213 211 212 210 226 225 209 209 215 223 225 226 232 225 210 209 225
8 343 339 337 322 142 147 167 178 175 173 190 205 211 212 218 215 209 205 206 198 190 199 205 210 216 213 215 215 221 228 225 202 201 209 218 224 234 229 223 226 228 234
42 14 10 12 22 85 137 155 166 170 174 195 197 207 220 215 205 210 211 213 210 200 201 205 207 208 205 200 209 215 213 206 197 205 217 228 231 222 203 207 223 231 257
55 16 37 65 50 54 74 130 154 170 180 192 203 206 215 226 213 207 204 215 217 204 182 186 186 193 196 200 199 202 204 208 208 213 218 222 218 217 221 217 219 218 260
42 33 32 44 76 68 45 49 82 208 210 199 201 200 198 219 241 243 232 220 205 191 163 152 164 173 173 170 175 187 207 209 219 220 217 213 213 219 229 220 221 232 245
8 12 39 57 65 77 73 36 17 357 333 304 277 250 255 250 243 242 241 230 218 185 166 172 187 191 194 194 200 210 223 227 224 220 214 212 217 220 233 242 236 233 246
13 357 2 9 27 30 44 62 19 7 357 339 313 290 262 256 257 257 244 210 195 178 167 181 194 195 200 199 200 212 232 235 223 215 221 218 220 225 228 232 236 242 250
8 349 348 2 10 5 351 335 306 295 341 345 342 328 310 283 262 252 237 187 169 163 162 181 193 197 197 197 204 214 226 230 222 223 226 226 224 227 231 235 236 241 250
357 355 0 13 9 353 343 331 319 311 299 318 342 342 333 322 305 280 221 153 168 182 175 179 187 195 203 199 199 208 218 229 233 232 233 235 230 227 235 238 240 249 254
351 344 350 1 0 352 345 332 319 314 314 320 319 320 327 323 294 275 239 167 180 189 186 187 193 193 192 192 195 203 214 224 229 235 238 238 238 232 233 238 239 243 250
346 343 343 349 351 337 328 319 320 321 309 303 298 306 307 288 280 258 222 193 196 198 197 201 208 206 201 205 208 210 216 228 230 232 236 238 241 244 243 241 242 245 251
348 347 349 342 337 332 331 330 325 313 301 296 303 309 312 315 315 299 277 263 264 242 219 210 228 226 222 216 216 217 223 232 235 234 236 239 239 242 245 241 244 248 248
346 344 344 339 334 323 328 335 324 314 305 302 304 307 311 310 308 299 290 285 285 269 248 227 226 244 246 238 230 226 228 235 235 232 236 242 242 241 237 237 239 245 248
335 332 334 334 332 323 321 321 316 312 310 305 307 307 306 306 300 296 291 300 286 272 258 246 242 245 250 254 247 242 240 241 239 235 230 231 236 239 237 235 239 240 245
340 336 335 330 324 320 319 317 316 314 314 311 306 308 312 307 298 294 293 290 278 272 268 262 259 255 256 258 257 255 256 257 256 246 234 229 229 232 235 237 239 244 245
358 344 331 324 318 312 309 308 311 313 309 309 305 299 298 293 288 286 288 288 282 275 271 267 264 262 264 266 264 263 264 265 265 261 245 231 227 234 235 240 238 241 245
Height
1458 1460 1462 1464 1466 1468 1470 1472 1474 1476 1478 1480 1483 1485 1488 1490 1492 1494 1497 1499 1501 1503 1505 1507 1508 1510 1512 1513 1515 1516 1517 1519 1518 1518 1520 1521 1521 1522 1522 1523 1523 1523 1523
1455 1457 1458 1460 1463 1464 1466 1468 1470 1472 1474 1476 1478 1481 1483 1485 1488 1490 1492 1494 1496 1498 1500 1502 1503 1505 1507 1509 1510 1511 1512 1513 1514 1514 1514 1515 1516 1517 1517 1518 1518 1518 1518
1452 1454 1455 1457 1459 1460 1462 1464 1466 1468 1470 1472 1474 1476 1478 1480 1483 1485 1487 1489 1490 1493 1495 1496 1498 1500 1501 1503 1505 1506 1507 1508 1509 1510 1510 1511 1511 1512 1513 1513 1513 1513 1514
1449 1450 1452 1453 1455 1457 1459 1460 1462 1464 1466 1468 1469 1471 1473 1475 1478 1480 1482 1484 1485 1487 1489 1491 1493 1494 1496 1498 1499 1501 1502 1503 1504 1505 1505 1506 1506 1507 1508 1508 1508 1508 1509
1445 1446 1448 1450 1452 1453 1455 1456 1458 1460 1462 1463 1465 1466 1468 1470 1473 1475 1477 1478 1480 1482 1484 1486 1487 1489 1491 1492 1494 1495 1497 1498 1499 1500 1500 1500 1501 1502 1502 1503 1503 1503 1504
1442 1443 1444 1446 1448 1449 1451 1452 1454 1455 1457 1459 1460 1462 1464 1465 1467 1470 1472 1473 1475 1477 1478 1480 1482 1483 1485 1487 1488 1490 1492 1493 1493 1494 1495 1495 1496 1497 1498 1498 1498 1498 1498
1439 1440 1441 1442 1444 1445 1447 1448 1449 1451 1452 1454 1455 1457 1459 1460 1462 1465 1467 1468 1470 1472 1473 1475 1476 1478 1480 1481 1483 1484 1486 1487 1489 1490 1490 1490 1491 1492 1493 1493 1493 1493 1493
1436 1436 1437 1439 1440 1441 1443 1443 1445 1447 1448 1449 1451 1452 1454 1455 1457 1459 1461 1463 1465 1466 1468 1470 1471 1472 1474 1476 1477 1478 1480 1482 1483 1484 1485 1485 1487 1488 1488 1489 1488 1488 1488
1433 1433 1434 1435 1436 1437 1438 1439 1441 1442 1444 1445 1446 1448 1449 1451 1453 1454 1456 1457 1459 1461 1463 1464 1466 1468 1469 1471 1472 1473 1475 1476 1478 1479 1480 1481 1482 1483 1483 1483 1483 1483 1482
1430 1430 1431 1432 1433 1434 1435 1436 1437 1438 1439 1441 1442 1443 1445 1446 1448 1449 1451 1452 1454 1456 1457 1459 1461 1462 1464 1465 1467 1468 1469 1470 1472 1473 1474 1475 1476 1477 1477 1478 1478 1478 1477
1428 1428 1429 1430 1430 1431 1432 1433 1434 1435 1436 1437 1438 1439 1441 1442 1443 1445 1446 1448 1449 1451 1452 1453 1455 1457 1459 1460 1462 1463 1465 1466 1467 1468 1469 1469 1471 1471 1472 1473 1473 1474 1473
1425 1426 1426 1427 1427 1428 1429 1430 1431 1431 1432 1433 1435 1436 1437 1438 1440 1441 1442 1444 1446 1447 1447 1449 1450 1452 1454 1455 1457 1459 1460 1462 1462 1463 1464 1464 1465 1466 1467 1468 1468 1468 1469
1423 1424 1424 1424 1425 1426 1426 1427 1428 1429 1429 1430 1431 1432 1433 1435 1436 1438 1439 1441 1442 1443 1444 1445 1446 1448 1449 1450 1452 1454 1455 1456 1457 1458 1458 1459 1461 1462 1462 1462 1463 1463 1463
1421 1422 1422 1422 1423 1423 1424 1425 1425 1426 1427 1427 1428 1429 1430 1431 1433 1434 1435 1436 1438 1438 1440 1441 1442 1444 1445 1446 1447 1449 1450 1451 1452 1453 1454 1455 1456 1457 1457 1457 1457 1457 1457
1420 1420 1420 1421 1421 1421 1422 1423 1423 1424 1425 1425 1426 1426 1427 1428 1429 1431 1432 1432 1433 1434 1436 1437 1438 1439 1439 1441 1442 1444 1445 1447 1447 1448 1450 1450 1451 1452 1452 1453 1453 1452 1452
1418 1419 1419 1419 1419 1419 1420 1421 1421 1422 1423 1424 1424 1424 1425 1426 1426 1427 1428 1429 1430 1431 1433 1433 1434 1435 1436 1436 1438 1439 1441 1442 1443 1444 1445 1446 1447 1447 1447 1448 1448 1448 1447
1417 1417 1417 1417 1417 1417 1418 1418 1419 1420 1420 1421 1421 1422 1422 1423 1423 1424 1425 1426 1427 1428 1429 1429 1430 1431 1432 1432 1433 1435 1436 1437 1438 1440 1441 1441 1442 1443 1443 1443 1443 1443 1443
1416 1416 1416 1416 1416 1416 1417 1417 1417 1417 1417 1418 1419 1419 1419 1420 1420 1421 1422 1423 1423 1424 1425 1426 1427 1427 1428 1429 1430 1431 1432 1433 1434 1435 1436 1437 1438 1438 1438 1438 1438 1438 1438
1415 1415 1414 1415 1415 1415 1415 1415 1415 1415 1415 1415 1416 1416 1417 1417 1418 1418 1419 1420 1420 1421 1422 1423 1424 1424 1425 1426 1426 1427 1428 1429 1430 1431 1432 1433 1433 1434 1434 1434 1434 1434 1434
1414 1414 1413 1413 1413 1413 1414 1414 1414 1414 1414 1413 1413 1414 1414 1414 1415 1415 1416 1417 1417 1418 1419 1420 1421 1421 1422 1422 1423 1424 1425 1425 1426 1427 1427 1428 1429 1429 1429 1429 1429 1429 1429
1413 1412 1412 1412 1412 1412 1412 1412 1412 1412 1412 1411 1411 1412 1412 1412 1412 1413 1413 1414 1415 1416 1416 1417 1418 1418 1419 1419 1420 1421 1421 1422 1422 1423 1424 1424 1424 1425 1425 1425 1425 1425 1424
1412 1411 1411 1411 1411 1411 1410 1410 1410 1410 1410 1409 1409 1410 1410 1410 1410 1410 1411 1411 1412 1413 1414 1415 1415 1415 1416 1416 1417 1417 1417 1418 1418 1419 1419 1420 1420 1420 1420 1420 1420 1420 1420
1411 1410 1410 1409 1409 1409 1409 1409 1408 1408 1408 1408 1407 1407 1407 1408 1408 1408 1409 1409 1410 1410 1411 1412 1412 1412 1413 1413 1413 1414 1414 1414 1415 1415 1415 1415 1416 1416 1416 1416 1416 1415 1415
1410 1409 1409 1408 1408 1407 1407 1407 1407 1406 1406 1406 1406 1406 1406 1406 1406 1406 1406 1407 1407 1408 1408 1408 1409 1409 1410 1410 1410 1410 1411 1411 1411 1411 1411 1411 1411 1412 1412 1412 1412 1411 1411
1409 1408 1407 1407 1406 1406 1406 1405 1405 1404 1404 1404 1403 1403 1403 1403 1403 1403 1404 1404 1404 1404 1405 1405 1405 1406 1406 1406 1406 1406 1407 1407 1407 1407 1407 1407 1407 1407 1407 1407 1407 1407 1407
1407 1407 1406 1405 1405 1404 1404 1403 1402 1402 1401 1401 1401 1401 1400 1400 1400 1400 1400 1400 1400 1401 1401 1401 1401 1402 1402 1402 1402 1402 1402 1402 1402 1402 1402 1402 1402 1402 1403 1402 1402 1402 1402